{"data":{"norad_id":61882,"epoch":"2026-05-24T19:51:04.394016Z","epoch_age_seconds":83143,"freshness":"FRESH","line1":"1 61882U 24204J   26144.82713419  .00000241  00000+0  68446-5 0  9998","line2":"2 61882  53.1585 340.8734 0000803  51.7996 308.3094 15.69696712 88871","mean_motion":15.69696712,"eccentricity":8.03e-5,"inclination_deg":53.1585,"raan_deg":340.8734,"arg_perigee_deg":51.7996,"mean_anomaly_deg":308.3094,"bstar":6.8446e-6,"rev_number":8887,"period_min":91.737466797981,"perigee_km":359.22372234505,"apogee_km":360.30582937025,"semimajor_km":6737.9017758577,"source":"CELESTRAK","updated_at":"2026-05-25T13:38:19.476364Z"}}